Regional Weather Roundup
Issued by NWS Green Bay, WI

Home | Current Version | Previous Version | Graphics & Text | Print | Product List | Glossary Off
Versions: 1 2 3 4 5 6 7 8 9 10 11 12 13 14 15 16 17 18 19 20 21 22 23 24 25 26 27 28 29 30 31 32 33 34 35 36 37 38 39 40 41 42 43 44 45 46 47 48 49 50

000
ASUS43 KGRB 251010
RWRGRB

NORTH-CENTRAL AND NORTHEAST WISCONSIN REGIONAL WEATHER ROUNDUP
NATIONAL WEATHER SERVICE GREEN BAY WI
400 AM CST SUN JAN 25 2015

WIZ005-009-010>012-018-019-251100-
NORTH CENTRAL WISCONSIN

CITY           SKY/WX    TMP DP  RH WIND       PRES   REMARKS
IRONWOOD       MOCLDY    14   9  79 NE6       29.88R WCI   5
MANITOWISH WTR MOCLDY     9   7  90 NE3       29.86R
ARBOR VITAE    MOCLDY    14  10  83 CALM      29.85R
EAGLE RIVER    CLOUDY    14   7  73 E13       29.84R WCI   0
LAND O LAKES   FLURRIES  14  10  83 NE3       29.86R
RHINELANDER    CLOUDY    14   7  73 NE7       29.84R WCI   4
PHILLIPS       CLOUDY    13   8  79 NE8       29.84R WCI   2
ANTIGO         CLOUDY    15   9  76 NE14      29.82S WCI   1
TOMAHAWK       CLOUDY    14   8  76 CALM      29.84S
MERRILL        CLOUDY    17  10  75 NE10      29.83R WCI   4
$$

WIZ013-073-251100-
NORTHEAST WISCONSIN

CITY           SKY/WX    TMP DP  RH WIND       PRES   REMARKS
IRON MOUNTAIN  LGT SNOW  16   9  74 NE8       29.88R WCI   5
MARINETTE      CLOUDY    19   9  63 NE16G23   29.89R WCI   5
OCONTO         CLOUDY    20  14  75 MISG      29.89R
$$

WIZ017-030-035>037-045-251100-
CENTRAL WISCONSIN

CITY           SKY/WX    TMP DP  RH WIND       PRES   REMARKS
MEDFORD        CLOUDY    19  13  78 NE15      29.80R WCI   4
WAUSAU         CLOUDY    19  11  70 NE12      29.81R WCI   7
MOSINEE        CLOUDY    21  18  86 NE16      29.82R WCI   7
MARSHFIELD     CLOUDY    27  20  75 E16       29.78R
WISC RAPIDS    CLOUDY    23  15  71 E9G22     29.81R
STEVENS POINT  CLOUDY    19  11  71 E14G21    29.82R WCI   6
WAUPACA        CLOUDY    23  14  68 NE7G17    29.84S
SHAWANO        CLOUDY    22  13  67 NE12      29.87R
CLINTONVILLE   CLOUDY    21  14  73 NE9       29.86R
$$

WIZ038-039-048-051-251100-
FOX VALLEY

CITY           SKY/WX    TMP DP  RH WIND       PRES   REMARKS
NWS GREEN BAY  CLOUDY    21  14  74 NE16G30   29.85S WCI   7
APPLETON       CLOUDY    21  14  73 NE14G23   29.84R WCI   8
OSHKOSH        CLOUDY    22  14  71 NE20      29.81S WCI   7
FOND DU LAC    CLOUDY    24  16  71 NE16G24   29.81R
$$

WIZ022-050-052-251100-
EAST CENTRAL WISCONSIN

CITY           SKY/WX    TMP DP  RH WIND       PRES   REMARKS
STURGEON BAY   CLOUDY    19  10  68 N13       29.89R WCI   7
MANITOWOC      CLOUDY    23  17  78 N13G20    29.83R
SHEBOYGAN      CLOUDY    25  18  74 N12G24    29.80R
$$

LMZ563-521-522-541>543-251100-
LAKESHORE

STATION/POSITION TIME  TEMP    WIND        PRES    VSBY  WAVE
                       AIR SEA DIR/SP/G                  HT/PER
                 (UTC) (F)     (DEG/KT/KT) (MB)    (MI)  (FT/S)
SHEBOYGAN LKSHOR 1000   28      30/ 25/ 28 1010.2R
KEWAUNEE LKSHORE 1000   22     360/  8/ 14 1010.3R
NORTHPORT PIER   1000   18      20/ 12/ 19 1012.9S
SISTER BAY LKSHO 0900   19      10/ 14/ 22   N/A
CHAMBERS ISLAND  1000   19      20/ 17/ 22 1012.5R
MENOMINEE LKSHOR 1000   20      30/ 17/ 20 1013.1R
$$



USA.gov is the U.S. government's official web portal to all federal, state and local government web resources and services.